Hourly Weather Cambridge

Today, 20 September, Sunday

Time Temperature Precipitation Wind Pressure Humidity
00:00 +13°C° 0 mm 4 mps 763 mmHg 88%
01:00 +13°C° 0 mm 4 mps 762 mmHg 89%
02:00 +13°C° 0 mm 4 mps 762 mmHg 90%
03:00 +13°C° 0 mm 5 mps 762 mmHg 91%
04:00 +13°C° 0 mm 5 mps 762 mmHg 91%
05:00 +13°C° 0 mm 5 mps 762 mmHg 91%
06:00 +13°C° 0 mm 4 mps 763 mmHg 96%
07:00 +14°C° 0 mm 5 mps 763 mmHg 88%
08:00 +16°C° 0 mm 5 mps 763 mmHg 81%
09:00 +17°C° 0 mm 5 mps 763 mmHg 74%
10:00 +20°C° 0 mm 5 mps 763 mmHg 69%
11:00 +21°C° 0 mm 5 mps 763 mmHg 63%
12:00 +22°C° 0 mm 5 mps 763 mmHg 58%
13:00 +22°C° 0 mm 5 mps 763 mmHg 57%
14:00 +22°C° 0 mm 5 mps 763 mmHg 56%
15:00 +22°C° 0 mm 5 mps 762 mmHg 56%
16:00 +21°C° 0 mm 5 mps 762 mmHg 62%
17:00 +19°C° 0 mm 4 mps 762 mmHg 68%
18:00 +17°C° 0 mm 4 mps 763 mmHg 74%
19:00 +15°C° 0 mm 4 mps 763 mmHg 79%
20:00 +14°C° 0 mm 3 mps 763 mmHg 85%
21:00 +13°C° 0 mm 3 mps 763 mmHg 90%
22:00 +13°C° 0 mm 3 mps 763 mmHg 92%
23:00 +13°C° 0 mm 2 mps 763 mmHg 93%

Tomorrow, 21 September, Monday

Time Temperature Precipitation Wind Pressure Humidity
00:00 +13°C° 0 mm 2 mps 763 mmHg 95%
01:00 +13°C° 0 mm 2 mps 762 mmHg 95%
02:00 +12°C° 0 mm 2 mps 762 mmHg 95%
03:00 +12°C° 0 mm 2 mps 762 mmHg 95%
04:00 +12°C° 0 mm 1 mps 762 mmHg 94%
05:00 +12°C° 0 mm 1 mps 762 mmHg 94%
06:00 +12°C° 0 mm 1 mps 762 mmHg 94%
07:00 +13°C° 0 mm 1 mps 762 mmHg 87%
08:00 +15°C° 0 mm 1 mps 762 mmHg 80%
09:00 +18°C° 0 mm 1 mps 762 mmHg 73%
10:00 +20°C° 0 mm 1 mps 761 mmHg 64%
11:00 +21°C° 0 mm 1 mps 761 mmHg 55%
12:00 +21°C° 0 mm 0 mps 761 mmHg 46%
13:00 +24°C° 0 mm 1 mps 761 mmHg 43%
14:00 +24°C° 0 mm 1 mps 760 mmHg 40%
15:00 +25°C° 0 mm 1 mps 760 mmHg 37%
16:00 +23°C° 0 mm 1 mps 760 mmHg 42%
17:00 +22°C° 0 mm 1 mps 760 mmHg 47%
18:00 +18°C° 0 mm 0 mps 759 mmHg 52%
19:00 +18°C° 0 mm 0 mps 759 mmHg 56%
20:00 +19°C° 0 mm 1 mps 759 mmHg 59%
21:00 +19°C° 0 mm 1 mps 759 mmHg 63%
22:00 +18°C° 0 mm 1 mps 759 mmHg 65%
23:00 +18°C° 0 mm 1 mps 759 mmHg 68%

Day after tomorrow, 22 September, Tuesday

Time Temperature Precipitation Wind Pressure Humidity
00:00 +16°C° 0 mm 1 mps 758 mmHg 71%
01:00 +16°C° 0 mm 1 mps 758 mmHg 73%
02:00 +16°C° 0 mm 1 mps 758 mmHg 75%
03:00 +16°C° 0 mm 1 mps 757 mmHg 77%
04:00 +16°C° 0 mm 1 mps 757 mmHg 78%
05:00 +15°C° 0 mm 1 mps 757 mmHg 80%
06:00 +15°C° 0 mm 1 mps 756 mmHg 81%
07:00 +17°C° 0 mm 2 mps 756 mmHg 74%
08:00 +19°C° 0 mm 2 mps 756 mmHg 68%
09:00 +20°C° 0 mm 3 mps 755 mmHg 61%
10:00 +22°C° 0 mm 3 mps 755 mmHg 57%
11:00 +23°C° 0 mm 4 mps 754 mmHg 53%
12:00 +25°C° 0 mm 4 mps 754 mmHg 49%
13:00 +25°C° 0 mm 4 mps 753 mmHg 49%
14:00 +26°C° 0 mm 5 mps 753 mmHg 50%
15:00 +26°C° 0 mm 5 mps 752 mmHg 50%
16:00 +23°C° 0 mm 4 mps 752 mmHg 55%
17:00 +22°C° 0 mm 4 mps 752 mmHg 60%
18:00 +21°C° 0 mm 3 mps 751 mmHg 66%
19:00 +20°C° 0.3 mm 3 mps 751 mmHg 72%
20:00 +19°C° 0.3 mm 3 mps 751 mmHg 78%
21:00 +18°C° 0.3 mm 4 mps 751 mmHg 84%
22:00 +17°C° 0 mm 3 mps 751 mmHg 87%
23:00 +17°C° 0 mm 3 mps 751 mmHg 89%

23 September, Wednesday

Time Temperature Precipitation Wind Pressure Humidity
00:00 +16°C° 0 mm 3 mps 750 mmHg 92%
01:00 +16°C° 0 mm 3 mps 750 mmHg 91%
02:00 +16°C° 0 mm 3 mps 750 mmHg 90%
03:00 +14°C° 0 mm 3 mps 749 mmHg 89%
04:00 +15°C° 0.1 mm 4 mps 749 mmHg 89%
05:00 +15°C° 0.1 mm 4 mps 749 mmHg 89%
06:00 +15°C° 0.1 mm 4 mps 748 mmHg 89%
07:00 +17°C° 0.5 mm 4 mps 748 mmHg 84%
08:00 +16°C° 0.5 mm 5 mps 748 mmHg 80%
09:00 +17°C° 0.5 mm 5 mps 748 mmHg 75%
10:00 +17°C° 0.2 mm 5 mps 748 mmHg 73%
11:00 +17°C° 0.2 mm 5 mps 748 mmHg 71%
12:00 +17°C° 0.2 mm 5 mps 748 mmHg 69%
13:00 +17°C° 0.2 mm 5 mps 748 mmHg 70%
14:00 +17°C° 0.2 mm 4 mps 748 mmHg 72%
15:00 +17°C° 0.2 mm 4 mps 748 mmHg 73%
16:00 +16°C° 0.9 mm 3 mps 747 mmHg 76%
17:00 +14°C° 0.9 mm 3 mps 747 mmHg 78%
18:00 +13°C° 0.9 mm 3 mps 747 mmHg 81%
19:00 +12°C° 0 mm 4 mps 748 mmHg 79%
20:00 +12°C° 0 mm 5 mps 748 mmHg 77%
21:00 +10°C° 0 mm 6 mps 748 mmHg 75%
22:00 +9°C° 0.3 mm 5 mps 749 mmHg 75%
23:00 +9°C° 0.3 mm 5 mps 749 mmHg 75%

24 September, Thursday

Time Temperature Precipitation Wind Pressure Humidity
00:00 +8°C° 0.3 mm 5 mps 749 mmHg 76%
01:00 +8°C° 0 mm 5 mps 750 mmHg 77%
02:00 +7°C° 0 mm 5 mps 750 mmHg 79%
03:00 +7°C° 0 mm 5 mps 750 mmHg 80%
04:00 +7°C° 0 mm 5 mps 750 mmHg 81%
05:00 +7°C° 0 mm 4 mps 750 mmHg 82%
06:00 +6°C° 0 mm 4 mps 750 mmHg 83%
07:00 +8°C° 0.2 mm 5 mps 749 mmHg 79%
08:00 +10°C° 0.2 mm 6 mps 749 mmHg 74%
09:00 +11°C° 0.2 mm 7 mps 748 mmHg 70%
10:00 +11°C° 2.4 mm 7 mps 747 mmHg 69%
11:00 +11°C° 2.4 mm 8 mps 747 mmHg 68%
12:00 +12°C° 2.4 mm 8 mps 746 mmHg 67%
13:00 +12°C° 0.3 mm 8 mps 746 mmHg 63%
14:00 +12°C° 0.3 mm 8 mps 745 mmHg 59%
15:00 +13°C° 0.3 mm 9 mps 745 mmHg 55%
16:00 +12°C° 0.1 mm 8 mps 744 mmHg 59%
17:00 +10°C° 0.1 mm 7 mps 744 mmHg 64%
18:00 +9°C° 0.1 mm 6 mps 743 mmHg 69%
19:00 +9°C° 0.1 mm 7 mps 743 mmHg 71%
20:00 +9°C° 0.1 mm 8 mps 743 mmHg 73%
21:00 +7°C° 0.1 mm 9 mps 743 mmHg 75%
22:00 +7°C° 0 mm 9 mps 743 mmHg 76%
23:00 +7°C° 0 mm 9 mps 742 mmHg 76%

25 September, Friday

Time Temperature Precipitation Wind Pressure Humidity
00:00 +7°C° 0 mm 9 mps 742 mmHg 77%
01:00 +7°C° 0.3 mm 8 mps 742 mmHg 79%
02:00 +7°C° 0.3 mm 8 mps 742 mmHg 81%
03:00 +8°C° 0.3 mm 7 mps 742 mmHg 84%
04:00 +6°C° 0.1 mm 7 mps 743 mmHg 85%
05:00 +7°C° 0.1 mm 6 mps 743 mmHg 85%
06:00 +5°C° 0.1 mm 6 mps 743 mmHg 86%
07:00 +7°C° 0 mm 6 mps 744 mmHg 82%
08:00 +8°C° 0 mm 6 mps 745 mmHg 79%
09:00 +9°C° 0 mm 7 mps 745 mmHg 75%
10:00 +9°C° 0.2 mm 7 mps 746 mmHg 76%
11:00 +7°C° 0.2 mm 8 mps 746 mmHg 78%
12:00 +7°C° 0.2 mm 8 mps 747 mmHg 79%
13:00 +9°C° 0.4 mm 8 mps 748 mmHg 77%
14:00 +8°C° 0.4 mm 9 mps 748 mmHg 74%
15:00 +8°C° 0.4 mm 9 mps 749 mmHg 72%
16:00 +8°C° 0 mm 9 mps 750 mmHg 70%
17:00 +7°C° 0 mm 8 mps 750 mmHg 69%
18:00 +8°C° 0 mm 7 mps 751 mmHg 67%
19:00 +8°C° 0 mm 7 mps 752 mmHg 68%
20:00 +6°C° 0 mm 8 mps 752 mmHg 69%
21:00 +6°C° 0 mm 8 mps 753 mmHg 69%
22:00 +6°C° 0 mm 8 mps 753 mmHg 69%
23:00 +6°C° 0 mm 8 mps 753 mmHg 69%
Show more